TimeEDT,TemperatureF,Dew PointF,Humidity,Sea Level PressureIn,VisibilityMPH,Wind Direction,Wind SpeedMPH,Gust SpeedMPH,PrecipitationIn,Events,Conditions,WindDirDegrees,DateUTC
12:56 AM,59.0,56.8,93,30.13,9.0,SSW,4.6,-,N/A,,Clear,200,2013-09-05 04:56:00
1:56 AM,56.8,55.9,97,30.14,8.0,South,3.5,-,N/A,,Clear,190,2013-09-05 05:56:00
2:56 AM,55.9,54.9,96,30.14,8.0,South,4.6,-,N/A,,Clear,190,2013-09-05 06:56:00
3:56 AM,54.9,54.9,100,30.15,8.0,SSW,4.6,-,N/A,,Clear,200,2013-09-05 07:56:00
4:56 AM,54.0,54.0,100,30.16,7.0,Calm,Calm,-,N/A,,Clear,0,2013-09-05 08:56:00
5:56 AM,54.9,54.9,100,30.16,5.0,SSW,5.8,-,N/A,,Clear,210,2013-09-05 09:56:00
6:56 AM,52.9,52.9,100,30.17,5.0,Calm,Calm,-,N/A,,Clear,0,2013-09-05 10:56:00
7:56 AM,55.9,55.9,100,30.19,4.0,Calm,Calm,-,N/A,,Clear,0,2013-09-05 11:56:00
8:56 AM,64.9,59.9,84,30.20,7.0,Variable,5.8,-,N/A,,Clear,0,2013-09-05 12:56:00
9:56 AM,70.9,61.9,73,30.21,8.0,Variable,5.8,-,N/A,,Clear,0,2013-09-05 13:56:00
10:56 AM,74.8,63.0,66,30.21,8.0,North,6.9,-,N/A,,Clear,10,2013-09-05 14:56:00
11:56 AM,77.0,61.9,59,30.21,8.0,Variable,6.9,-,N/A,,Clear,0,2013-09-05 15:56:00
12:56 PM,79.9,63.0,56,30.20,8.0,NW,9.2,-,N/A,,Partly Cloudy,310,2013-09-05 16:56:00
1:56 PM,81.9,63.0,53,30.19,8.0,NNW,10.4,-,N/A,,Mostly Cloudy,330,2013-09-05 17:56:00
2:56 PM,81.0,63.0,54,30.19,8.0,Variable,3.5,-,N/A,,Mostly Cloudy,0,2013-09-05 18:56:00
3:56 PM,81.0,63.9,56,30.17,8.0,NNW,9.2,-,N/A,,Partly Cloudy,330,2013-09-05 19:56:00
4:56 PM,81.0,61.9,52,30.17,8.0,Variable,6.9,-,N/A,,Partly Cloudy,0,2013-09-05 20:56:00
5:56 PM,81.0,57.9,45,30.17,8.0,NNW,8.1,-,N/A,,Clear,340,2013-09-05 21:56:00
6:56 PM,77.9,54.9,45,30.18,8.0,North,9.2,-,N/A,,Clear,360,2013-09-05 22:56:00
7:56 PM,72.0,46.9,41,30.18,9.0,North,9.2,-,N/A,,Clear,10,2013-09-05 23:56:00
8:56 PM,64.9,50.0,58,30.20,9.0,NE,10.4,-,N/A,,Clear,50,2013-09-06 00:56:00
9:56 PM,57.9,50.9,77,30.22,9.0,ENE,8.1,-,N/A,,Clear,70,2013-09-06 01:56:00
10:56 PM,55.9,47.8,74,30.23,10.0,ENE,8.1,-,N/A,,Clear,60,2013-09-06 02:56:00
11:56 PM,54.9,47.8,77,30.24,9.0,ENE,6.9,-,N/A,,Clear,70,2013-09-06 03:56:00